STARLINK-33780 (63459 NORAD) Tracking and Keplerian Element Data

This shows tracking and keplerian element data for the satellite.

Feedback or suggestion? Click here.




ElementValue
Catalog63459
NameSTARLINK-33780
Epoch Orbit4105
Epoch Day353.72564952
Epoch Year2025
RAAN153.7549
Inclination53.1584
Eccentricity0.0001206
Argument of Perigee93.1845
Mean Anonmoly266.9294
Mean Motion15.30213708
Decay Rate0.00023209
L11 63459U 25069AC 25353.72564952 .00023209 00000+0 79296-3 0 9998
L22 63459 53.1584 153.7549 0001206 93.1845 266.9294 15.30213708 41056



Live tracking and technical data element details for STARLINK-33780 (NORAD 63459). STARLINK-33780 can be tracked NOW for your location showing map with azimuth and elevation plus other details from your city location.







IsCatalogInMostPopularTable: catalog: 63459, numindb: 2
Update: records affected: 1



GetName: 63459 STARLINK-33780

Hit Count: updated at: Wed, 11 Feb 2026 15:15:57 GMT